Weather in Bol'shoye Rybushkino

Russia / Nizhny Novgorod Oblast'     55°24′53″N   45°46′11″E
temp.,
°C
wind,
m/s
gust,
m/s
humid.,
%
clouds,
%
prec.,
mm/h
press.,
hPa
HPBL,
m
4 march, thu
thu400:00−4wsw6139399 0.1 1005491
03:00−3wsw6119596 0.2 1003485
06:00−2wsw71396100 0.7 1000683
09:00−1sw91593100 1.1 997830
12:00+1wsw101697100 0.9 994964
15:000wnw81495100 2.2 994925
18:00−2w51283100 0.1 996419
21:00−4w4990100 0.1 998212
5 march, fri
fri500:00−7wnw3494100 0.0 99870
03:00−10nw3393100 0.0 100035
06:00−13nw239342 0.0 100222
09:00−11nw249321 0.0 1005138
12:00−7w349115 0.0 1006270
15:00−6wsw369221 0.0 1007327
18:00−9sw349226 0.0 100848
21:00−8sw379663 0.3 1010184
6 march, sat
sat600:00−10wnw469568 0.1 101093
03:00−13wnw359539 0.1 101269
06:00−15wnw469686 0.0 101396
09:00−14nw369589 0.1 1014215
12:00−12wnw358978 0.0 1015411
15:00−11wnw478670 0.0 1014672
18:00−15w349152 0.0 101435
21:00−16w349436 0.0 101538
7 march, sun
sun700:00−15wsw479585 0.0 1014120
03:00−16sw479476 0.0 1013120
06:00−16sw479540 0.0 1011131
09:00−11ssw7129254 0.0 1008375
12:00−7ssw81485100 0.0 1005769
15:00−6ssw91587100 0.2 10011009
18:00−5ssw91592100 0.6 9971026
21:00−4ssw71594100 1.3 994924
8 march, mon
mon800:00−8w71480100 0.6 995936
03:00−12wsw6148550 0.6 998292
06:00−12sw715802 0.0 999305
09:00−9sw7158125 0.0 998502
12:00−6ssw71177100 0.0 997911
15:00−5s4694100 0.5 997475
18:00−10w81488100 1.2 999445
21:00−8wnw71292100 1.3 1002432